| time (UTC) | temp C | wind direction | speed KPH | gust KPH | rain 1hr cm | rain 24hr cm | rain mn cm | humidity % | barometer mb |
| 20260508033305 | 2 | 103 | 0.0 | 0.0 | 0.00 | 0.00 | 0.00 | 94 | 1017.4 |
| 20260508031804 | 2 | 103 | 0.0 | 1.6 | 0.00 | 0.00 | 0.00 | 94 | 1017.4 |
| 20260508030305 | 2 | 103 | 1.6 | 3.2 | 0.00 | 0.00 | 0.00 | 94 | 1017.5 |
| 20260508025805 | 2 | 103 | 1.6 | 1.6 | 0.00 | 0.00 | 0.00 | 94 | 1017.5 |
| 20260508025306 | 2 | 103 | 0.0 | 3.2 | 0.00 | 0.00 | 0.00 | 94 | 1017.5 |
| 20260508023805 | 2 | 103 | 1.6 | 1.6 | 0.00 | 0.00 | 0.00 | 94 | 1017.5 |
| 20260508023305 | 2 | 103 | 0.0 | 1.6 | 0.00 | 0.00 | 0.00 | 94 | 1017.4 |
| 20260508022307 | 2 | 103 | 0.0 | 3.2 | 0.00 | 0.00 | 0.00 | 94 | 1017.4 |
| 20260508021804 | 2 | 103 | 1.6 | 1.6 | 0.00 | 0.00 | 0.00 | 94 | 1017.4 |
| 20260508020804 | 2 | 103 | 1.6 | 3.2 | 0.00 | 0.00 | 0.00 | 94 | 1017.4 |
| 20260508020305 | 2 | 103 | 1.6 | 3.2 | 0.00 | 0.00 | 0.00 | 94 | 1017.4 |
| 20260508015306 | 2 | 103 | 0.0 | 3.2 | 0.00 | 0.00 | 0.00 | 94 | 1017.4 |
| 20260508014804 | 2 | 103 | 1.6 | 3.2 | 0.00 | 0.00 | 0.00 | 94 | 1017.4 |
| 20260508012805 | 3 | 103 | 1.6 | 3.2 | 0.00 | 0.00 | 0.00 | 93 | 1017.3 |
| 20260508011804 | 3 | 103 | 0.0 | 1.6 | 0.00 | 0.00 | 0.00 | 93 | 1017.5 |
| 20260508011305 | 3 | 103 | 0.0 | 3.2 | 0.00 | 0.00 | 0.00 | 93 | 1017.5 |
| 20260508010804 | 3 | 103 | 1.6 | 3.2 | 0.00 | 0.00 | 0.00 | 93 | 1017.5 |
| 20260508010305 | 3 | 103 | 1.6 | 1.6 | 0.00 | 0.00 | 0.00 | 93 | 1017.5 |
| 20260508005306 | 3 | 103 | 0.0 | 3.2 | 0.00 | 0.00 | 0.00 | 93 | 1017.3 |
| 20260508004804 | 3 | 103 | 0.0 | 1.6 | 0.00 | 0.00 | 0.00 | 93 | 1017.3 |
| 20260508003804 | 4 | 103 | 0.0 | 3.2 | 0.00 | 0.00 | 0.00 | 93 | 1017.4 |
| 20260508003304 | 4 | 103 | 1.6 | 3.2 | 0.00 | 0.00 | 0.00 | 93 | 1017.5 |
| 20260508002306 | 4 | 103 | 1.6 | 3.2 | 0.00 | 0.00 | 0.00 | 92 | 1017.5 |
| 20260508000305 | 5 | 103 | 0.0 | 3.2 | 0.00 | 0.00 | 0.00 | 92 | 1017.6 |
| 20260507235306 | 5 | 103 | 1.6 | 3.2 | 0.00 | 0.00 | 0.00 | 92 | 1017.6 |
| 20260507234805 | 5 | 103 | 1.6 | 3.2 | 0.00 | 0.00 | 0.00 | 92 | 1017.7 |
| 20260507233304 | 5 | 103 | 0.0 | 1.6 | 0.00 | 0.00 | 0.00 | 92 | 1017.7 |
| 20260507232306 | 6 | 103 | 1.6 | 3.2 | 0.00 | 0.00 | 0.00 | 91 | 1017.7 |
| 20260507231805 | 6 | 103 | 0.0 | 0.0 | 0.00 | 0.00 | 0.00 | 91 | 1017.7 |
| 20260507230824 | 6 | 106 | 0.0 | 1.6 | 0.00 | 0.00 | 0.00 | 91 | 1017.6 |
| 20260507225306 | 10 | 106 | 3.2 | 3.2 | 0.00 | 0.00 | 0.00 | 83 | 1017.3 |
| 20260507224804 | 10 | 106 | 3.2 | 3.2 | 0.00 | 0.00 | 0.00 | 83 | 1017.3 |
| 20260507222805 | 10 | 106 | 3.2 | 3.2 | 0.00 | 0.00 | 0.00 | 83 | 1017.3 |
| 20260507220305 | 10 | 106 | 3.2 | 3.2 | 0.00 | 0.00 | 0.00 | 83 | 1017.3 |
| 20260507215806 | 10 | 106 | 3.2 | 3.2 | 0.00 | 0.00 | 0.00 | 83 | 1017.3 |
| 20260507215306 | 10 | 106 | 3.2 | 3.2 | 0.00 | 0.00 | 0.00 | 83 | 1017.3 |
| 20260507214804 | 10 | 106 | 3.2 | 3.2 | 0.00 | 0.00 | 0.00 | 83 | 1017.3 |
| 20260507213804 | 10 | 106 | 3.2 | 3.2 | 0.00 | 0.00 | 0.00 | 83 | 1017.3 |
| 20260507213304 | 10 | 106 | 3.2 | 3.2 | 0.00 | 0.00 | 0.00 | 83 | 1017.3 |
| 20260507212804 | 10 | 106 | 3.2 | 3.2 | 0.00 | 0.00 | 0.00 | 83 | 1017.3 |
| 20260507212307 | 10 | 106 | 3.2 | 3.2 | 0.00 | 0.00 | 0.00 | 83 | 1017.3 |
| 20260507210304 | 10 | 106 | 3.2 | 3.2 | 0.00 | 0.00 | 0.00 | 83 | 1017.3 |
| 20260507205804 | 10 | 106 | 3.2 | 3.2 | 0.00 | 0.00 | 0.00 | 83 | 1017.3 |
| 20260507204804 | 10 | 106 | 3.2 | 3.2 | 0.00 | 0.00 | 0.00 | 83 | 1017.3 |
| 20260507203304 | 10 | 106 | 3.2 | 3.2 | 0.00 | 0.00 | 0.00 | 83 | 1017.3 |
| 20260507201804 | 10 | 106 | 3.2 | 3.2 | 0.00 | 0.00 | 0.00 | 83 | 1017.3 |
| 20260507201306 | 10 | 106 | 3.2 | 3.2 | 0.00 | 0.00 | 0.00 | 83 | 1017.3 |
| 20260507195306 | 11 | 121 | 3.2 | 8.0 | 0.00 | 0.00 | 0.00 | 83 | 1017.1 |
| 20260507194805 | 11 | 120 | 6.4 | 16.1 | 0.00 | 0.00 | 0.00 | 83 | 1017.1 |
| 20260507193804 | 11 | 129 | 8.0 | 12.9 | 0.00 | 0.00 | 0.00 | 83 | 1017.0 |
| 20260507193305 | 11 | 113 | 8.0 | 14.5 | 0.00 | 0.00 | 0.00 | 83 | 1017.1 |
| 20260507192804 | 11 | 121 | 4.8 | 12.9 | 0.00 | 0.00 | 0.00 | 83 | 1017.0 |
| 20260507191304 | 11 | 133 | 8.0 | 14.5 | 0.00 | 0.00 | 0.00 | 82 | 1017.1 |
| 20260507190804 | 11 | 131 | 9.7 | 16.1 | 0.00 | 0.00 | 0.00 | 81 | 1016.9 |
| 20260507184304 | 12 | 108 | 8.0 | 12.9 | 0.00 | 0.00 | 0.00 | 79 | 1016.9 |
| 20260507183804 | 12 | 123 | 9.7 | 19.3 | 0.00 | 0.00 | 0.00 | 79 | 1016.9 |
| 20260507182804 | 12 | 135 | 12.9 | 22.5 | 0.00 | 0.00 | 0.00 | 79 | 1016.8 |
| 20260507182306 | 12 | 130 | 12.9 | 19.3 | 0.00 | 0.00 | 0.00 | 79 | 1016.8 |
| 20260507175805 | 12 | 127 | 3.2 | 16.1 | 0.00 | 0.00 | 0.00 | 79 | 1016.5 |
| 20260507175307 | 12 | 136 | 9.7 | 16.1 | 0.00 | 0.00 | 0.00 | 79 | 1016.5 |
| 20260507174805 | 12 | 120 | 8.0 | 14.5 | 0.00 | 0.00 | 0.00 | 78 | 1016.4 |
| 20260507174304 | 12 | 139 | 8.0 | 19.3 | 0.00 | 0.00 | 0.00 | 78 | 1016.4 |
| 20260507173804 | 12 | 135 | 11.3 | 24.1 | 0.00 | 0.00 | 0.00 | 77 | 1016.4 |
| 20260507172804 | 12 | 127 | 4.8 | 14.5 | 0.00 | 0.00 | 0.00 | 76 | 1016.4 |
| 20260507172307 | 12 | 140 | 4.8 | 14.5 | 0.00 | 0.00 | 0.00 | 76 | 1016.4 |
| 20260507171304 | 12 | 143 | 4.8 | 11.3 | 0.00 | 0.00 | 0.00 | 76 | 1016.4 |
| 20260507170804 | 12 | 123 | 4.8 | 12.9 | 0.00 | 0.00 | 0.00 | 75 | 1016.4 |
| 20260507170304 | 12 | 159 | 8.0 | 12.9 | 0.00 | 0.00 | 0.00 | 75 | 1016.4 |
| 20260507165306 | 12 | 140 | 8.0 | 14.5 | 0.00 | 0.00 | 0.00 | 75 | 1016.4 |
| 20260507164304 | 13 | 123 | 3.2 | 9.7 | 0.00 | 0.00 | 0.00 | 74 | 1016.4 |
| 20260507163804 | 13 | 123 | 6.4 | 12.9 | 0.00 | 0.00 | 0.00 | 74 | 1016.4 |
| 20260507162307 | 13 | 135 | 9.7 | 16.1 | 0.00 | 0.00 | 0.00 | 74 | 1016.4 |
| 20260507161804 | 13 | 127 | 8.0 | 12.9 | 0.00 | 0.00 | 0.00 | 74 | 1016.4 |
| 20260507160803 | 13 | 135 | 9.7 | 16.1 | 0.00 | 0.00 | 0.00 | 74 | 1016.5 |
| 20260507155804 | 13 | 150 | 9.7 | 14.5 | 0.00 | 0.00 | 0.00 | 74 | 1016.5 |
| 20260507154804 | 13 | 140 | 3.2 | 12.9 | 0.00 | 0.00 | 0.00 | 74 | 1016.5 |
| 20260507154304 | 13 | 143 | 4.8 | 12.9 | 0.00 | 0.00 | 0.00 | 73 | 1016.4 |
| 20260507153304 | 13 | 179 | 6.4 | 14.5 | 0.00 | 0.00 | 0.00 | 72 | 1016.5 |
| 20260507152306 | 13 | 348 | 3.2 | 4.8 | 0.00 | 0.00 | 0.00 | 68 | 1016.5 |
| 20260507145804 | 13 | 38 | 1.6 | 4.8 | 0.00 | 0.00 | 0.00 | 70 | 1016.5 |
| 20260507144804 | 13 | 48 | 4.8 | 9.7 | 0.00 | 0.00 | 0.00 | 72 | 1016.5 |
| 20260507144303 | 13 | 36 | 3.2 | 8.0 | 0.00 | 0.00 | 0.00 | 71 | 1016.5 |
| 20260507142804 | 13 | 32 | 1.6 | 8.0 | 0.00 | 0.00 | 0.00 | 68 | 1016.6 |
| 20260507142306 | 13 | 44 | 3.2 | 8.0 | 0.00 | 0.00 | 0.00 | 72 | 1016.6 |
| 20260507135306 | 13 | 36 | 1.6 | 4.8 | 0.00 | 0.00 | 0.00 | 72 | 1016.8 |
| 20260507134804 | 13 | 55 | 1.6 | 4.8 | 0.00 | 0.00 | 0.00 | 72 | 1016.9 |
| 20260507134305 | 13 | 50 | 1.6 | 4.8 | 0.00 | 0.00 | 0.00 | 72 | 1016.8 |
| 20260507133304 | 13 | 78 | 4.8 | 9.7 | 0.00 | 0.00 | 0.00 | 72 | 1016.8 |
| 20260507132307 | 13 | 98 | 4.8 | 12.9 | 0.00 | 0.00 | 0.00 | 70 | 1016.8 |
| 20260507131804 | 13 | 68 | 3.2 | 9.7 | 0.00 | 0.00 | 0.00 | 70 | 1016.9 |
| 20260507130304 | 13 | 54 | 4.8 | 9.7 | 0.00 | 0.00 | 0.00 | 71 | 1016.9 |
| 20260507124804 | 13 | 68 | 4.8 | 12.9 | 0.00 | 0.00 | 0.00 | 71 | 1016.9 |
| 20260507123804 | 13 | 119 | 8.0 | 20.9 | 0.00 | 0.00 | 0.00 | 71 | 1016.9 |
| 20260507122803 | 14 | 57 | 4.8 | 16.1 | 0.00 | 0.00 | 0.00 | 70 | 1016.9 |
| 20260507121804 | 13 | 98 | 3.2 | 9.7 | 0.00 | 0.00 | 0.00 | 71 | 1017.0 |
| 20260507121304 | 13 | 116 | 4.8 | 11.3 | 0.00 | 0.00 | 0.00 | 71 | 1017.1 |
| 20260507120804 | 13 | 109 | 8.0 | 12.9 | 0.00 | 0.00 | 0.00 | 72 | 1017.1 |
| 20260507115804 | 13 | 105 | 9.7 | 20.9 | 0.00 | 0.00 | 0.00 | 72 | 1017.0 |
| 20260507115307 | 13 | 48 | 4.8 | 16.1 | 0.00 | 0.00 | 0.00 | 72 | 1017.1 |
| 20260507112306 | 12 | 121 | 4.8 | 14.5 | 0.00 | 0.00 | 0.00 | 70 | 1017.1 |
| 20260507111805 | 12 | 88 | 3.2 | 11.3 | 0.00 | 0.00 | 0.00 | 73 | 1017.2 |
| 20260507110805 | 13 | 103 | 8.0 | 14.5 | 0.00 | 0.00 | 0.00 | 73 | 1017.2 |
| 20260507104806 | 12 | 82 | 4.8 | 11.3 | 0.00 | 0.00 | 0.00 | 76 | 1017.3 |
| 20260507101805 | 12 | 99 | 6.4 | 12.9 | 0.00 | 0.00 | 0.00 | 74 | 1017.5 |
| 20260507101305 | 12 | 110 | 3.2 | 11.3 | 0.00 | 0.00 | 0.00 | 75 | 1017.5 |
| 20260507094806 | 12 | 97 | 3.2 | 8.0 | 0.00 | 0.00 | 0.00 | 76 | 1017.4 |
| 20260507093805 | 12 | 85 | 4.8 | 8.0 | 0.00 | 0.00 | 0.00 | 74 | 1017.5 |
| 20260507092805 | 12 | 64 | 1.6 | 4.8 | 0.00 | 0.00 | 0.00 | 76 | 1017.4 |
| 20260507092307 | 12 | 149 | 3.2 | 8.0 | 0.00 | 0.00 | 0.00 | 75 | 1017.3 |
| 20260507091305 | 13 | 97 | 8.0 | 12.9 | 0.00 | 0.00 | 0.00 | 73 | 1017.4 |
| 20260507090805 | 13 | 76 | 4.8 | 8.0 | 0.00 | 0.00 | 0.00 | 75 | 1017.4 |
| 20260507090305 | 11 | 41 | 3.2 | 4.8 | 0.00 | 0.00 | 0.00 | 79 | 1017.4 |
| 20260507085807 | 11 | 74 | 3.2 | 4.8 | 0.00 | 0.00 | 0.00 | 79 | 1017.4 |
| 20260507083806 | 11 | 124 | 3.2 | 8.0 | 0.00 | 0.00 | 0.00 | 76 | 1017.4 |
| 20260507083305 | 11 | 353 | 1.6 | 3.2 | 0.00 | 0.00 | 0.00 | 80 | 1017.5 |
| 20260507082805 | 11 | 89 | 3.2 | 4.8 | 0.00 | 0.00 | 0.00 | 81 | 1017.5 |
| 20260507081805 | 10 | 80 | 3.2 | 4.8 | 0.00 | 0.00 | 0.00 | 81 | 1017.5 |
| 20260507080805 | 10 | 94 | 3.2 | 4.8 | 0.00 | 0.00 | 0.00 | 82 | 1017.5 |
| 20260507074805 | 10 | 123 | 8.0 | 11.3 | 0.00 | 0.00 | 0.00 | 84 | 1017.4 |
| 20260507070805 | 8 | 105 | 3.2 | 4.8 | 0.00 | 0.00 | 0.00 | 94 | 1017.3 |
| 20260507065805 | 8 | 111 | 3.2 | 4.8 | 0.00 | 0.00 | 0.00 | 95 | 1017.2 |
| 20260507065306 | 7 | 118 | 3.2 | 4.8 | 0.00 | 0.00 | 0.00 | 96 | 1017.2 |
| 20260507064805 | 7 | 69 | 1.6 | 3.2 | 0.00 | 0.00 | 0.00 | 96 | 1017.2 |
| 20260507063805 | 7 | 6 | 1.6 | 1.6 | 0.00 | 0.00 | 0.00 | 97 | 1017.1 |
| 20260507062306 | 7 | 339 | 0.0 | 0.0 | 0.00 | 0.00 | 0.00 | 97 | 1017.1 |
| 20260507061804 | 7 | 339 | 0.0 | 0.0 | 0.00 | 0.00 | 0.00 | 97 | 1017.2 |
| 20260507061304 | 6 | 339 | 0.0 | 0.0 | 0.00 | 0.00 | 0.00 | 97 | 1017.1 |
| 20260507060305 | 6 | 339 | 0.0 | 1.6 | 0.00 | 0.00 | 0.00 | 97 | 1017.0 |
| 20260507055306 | 6 | 339 | 0.0 | 3.2 | 0.00 | 0.00 | 0.00 | 97 | 1016.9 |
| 20260507054805 | 6 | 339 | 0.0 | 0.0 | 0.00 | 0.00 | 0.00 | 97 | 1016.7 |
| 20260507053305 | 5 | 28 | 0.0 | 0.0 | 0.00 | 0.00 | 0.00 | 97 | 1016.7 |
| 20260507052306 | 5 | 28 | 0.0 | 0.0 | 0.00 | 0.00 | 0.00 | 96 | 1016.6 |
| 20260507051805 | 5 | 28 | 0.0 | 0.0 | 0.00 | 0.00 | 0.00 | 96 | 1016.6 |
| 20260507045306 | 5 | 28 | 0.0 | 0.0 | 0.00 | 0.00 | 0.00 | 96 | 1016.5 |
| 20260507043805 | 5 | 28 | 0.0 | 1.6 | 0.00 | 0.00 | 0.00 | 96 | 1016.4 |
| 20260507043305 | 5 | 28 | 0.0 | 3.2 | 0.00 | 0.00 | 0.00 | 96 | 1016.4 |
| 20260507041305 | 5 | 28 | 1.6 | 3.2 | 0.00 | 0.00 | 0.00 | 96 | 1016.2 |
| 20260507040805 | 5 | 28 | 0.0 | 3.2 | 0.00 | 0.00 | 0.00 | 96 | 1016.2 |
| 20260507040305 | 5 | 28 | 0.0 | 0.0 | 0.00 | 0.00 | 0.00 | 96 | 1016.2 |
| 20260507034305 | 6 | 28 | 0.0 | 0.0 | 0.00 | 0.00 | 0.00 | 96 | 1016.1 |